Regional Weather Roundup
Issued by NWS Newport/Morehead, NC

Current Version | Previous Version | Graphics & Text | Print | Product List | Glossary Off
Versions: 1 2 3 4 5 6 7 8 9 10 11 12 13 14 15 16 17 18 19 20 21 22 23 24 25 26 27 28 29 30 31 32 33 34 35 36 37 38 39 40 41 42 43 44 45 46 47 48 49 50

000
ASUS42 KMHX 251725
RWRMHX
WEATHER ROUNDUP FOR EASTERN NORTH CAROLINA
NATIONAL WEATHER SERVICE NEWPORT/MOREHEAD CITY NC
100 PM EDT MON MAY 25 2015

NOTE: "FAIR" INDICATES FEW OR NO CLOUDS BELOW 12,000 FEET
WITH NO SIGNIFICANT WEATHER AND/OR OBSTRUCTIONS TO VISIBILITY

NCZ015>017-031-032-045>047-102-103-251800-
NORTH COAST

CITY           SKY/WX    TMP DP  RH WIND       PRES   REMARKS
EDENTON          N/A     80  61  51 S10       30.34F
ELIZABETH CITY SUNNY     78  61  55 S8        30.35F
KITTY HAWK     SUNNY     78  56  47 SE8       30.35S
MANTEO         SUNNY     75  60  58 S10       30.36F

$$

NCZ045>047-081-094-103-104-251800-
CENTRAL COAST

CITY           SKY/WX    TMP DP  RH WIND       PRES   REMARKS
FRISCO         MOSUNNY   78  57  48 S7        30.37S
SWANQUARTER      N/A     79 N/A N/A S6G14     30.33S

$$

NCZ095-097-098-100-101-251800-
SOUTHERN COAST

CITY           SKY/WX    TMP DP  RH WIND       PRES   REMARKS
BEAUFORT       MOSUNNY   77  62  59 S7        30.36F
CEDAR ISLAND     N/A     77 N/A N/A E10       30.39F
JACKSONVILLE   SUNNY     79  57  46 S12       30.34F
PINEY ISLAND   SUNNY    N/A N/A N/A SE8       30.36S
WILMINGTON     MOSUNNY   77  60  55 SE9       30.35S


$$

NCZ011>013-027>030-043-044-078>080-089-090>093-098-251800-
COASTAL PLAIN

CITY           SKY/WX    TMP DP  RH WIND       PRES   REMARKS
AHOSKIE        SUNNY     78  58  49 SE9       30.33F
CLINTON        SUNNY     80  60  49 S6        30.33F
ELIZABETHTOWN  SUNNY     81  55  40 SE9       30.32F
GOLDSBORO      SUNNY     81  59  47 S6        30.30F
GREENVILLE     SUNNY     81  55  41 S7G16     30.34F
HAVELOCK       SUNNY     80  54  40 SE8G17    30.36S
KENANSVILLE    SUNNY     80  56  44 S6        30.34F
KINSTON        SUNNY     82  57  42 S9G17     30.34F
NEW BERN       SUNNY     80  57  45 E8G20     30.36F
RICHLANDS      SUNNY     82  55  39 SE9       30.34F
ROCKY MOUNT    SUNNY     81  57  43 SE9       30.33F
WASHINGTON     SUNNY     80  58  46 SE13      30.34F
WHITEVILLE     SUNNY     80  55  41 SE8       30.33F

$$

AMZ130-135-150-152-154-156-158-170-250-252-270-ANZ085-086-088-633-658-670-251800-
MARINE OBSERVATIONS

STATION/POSITION TIME  TEMP    WIND        PRES    WAVE   SWELL
                       AIR SEA DIR/SP/G            HT/PER HT/PER
                 (UTC) (F)     (DEG/KT/KT) (MB)    (FT/S) (FT/S)
CHESAPEAKE LIGHT 1700   68     160/ 15/ 15 1028.1
64 E VA BEACH    1650   66 63  150/  4/  6 1028.0    1/ 8   2/ 8
DUCK             1700   70 63  130/  6/  7 1027.1
2 E DUCK         1611      66                N/A     1/ 8
OREGON INLET     1700   73 73  180/ 10/ 11 1028.2
13E OREGON INLT  1700      69                N/A     1/ 7
HATTERAS CG      1700   75 74  150/  8/  9 1028.0
DIAMOND BUOY     1650   74 78  140/  8/ 10 1028.5    2/ 8   2/ 8
CAPE LOOKOUT     1700   74     140/  8/  9 1027.8
BEAUFORT LAB     1700   74 74  160/  8/ 12 1027.3
27 SE WRIGHTSVLE 1700   72 77  170/  8/ 10   N/A
5 SE WRIGHTSVLE  1608   74 76  160/  8/ 12 1027.9
225 S CAPE HAT   1650   74 74  110/ 12/ 16 1027.4    3/ 5   2/ 7
41 SE CHARLESTON 1650   76 75   90/ 12/ 12 1026.1    4/ 8   3/ 8

$$


USA.gov is the U.S. government's official web portal to all federal, state and local government web resources and services.